DW7355 Weather Reports


Display with metric or nautical units.
time (UTC)temp
F
wind
direction
speed
MPH
gust
MPH
rain 1hr
in
rain 24hr
in
rain mn
in
humidity
%
barometer
mb
20230203071512 31 255 0.0 5.0 0.00 0.00 0.00 55 1004.0
20230203070009 31 226 1.0 4.0 0.00 0.00 0.00 54 1004.3
20230203064508 31 313 2.0 5.0 0.00 0.00 0.00 55 1004.4
20230203063005 31 260 0.0 5.0 0.00 0.00 0.00 56 1004.4
20230203061504 31 215 1.0 0.0 0.00 0.00 0.00 56 1004.6
20230203060001 31 303 1.0 3.0 0.00 0.00 0.00 56 1004.7
20230203054559 31 187 0.0 5.0 0.00 0.00 0.00 57 1004.9
20230203053057 31 259 2.0 7.0 0.00 0.00 0.00 58 1005.1
20230203051552 31 267 1.0 5.0 0.00 0.00 0.00 59 1005.5
20230203050048 31 276 1.0 5.0 0.00 0.00 0.00 61 1006.0
20230203044552 31 298 2.0 6.0 0.00 0.00 0.00 61 1006.2
20230203043045 31 236 1.0 5.0 0.00 0.00 0.00 61 1006.4
20230203041546 31 273 1.0 5.0 0.00 0.00 0.00 62 1006.7
20230203040042 31 224 1.0 6.0 0.00 0.00 0.00 62 1006.8
20230203034540 31 151 2.0 6.0 0.00 0.00 0.00 63 1007.1
20230203033038 31 293 2.0 9.0 0.00 0.00 0.00 63 1007.4
20230203031535 31 316 0.0 6.0 0.00 0.00 0.00 63 1007.9
20230203030032 31 233 2.0 6.0 0.00 0.00 0.00 62 1008.5
20230203024532 31 229 2.0 7.0 0.00 0.00 0.00 63 1008.7
20230203023036 31 252 0.0 5.0 0.00 0.00 0.00 62 1008.8
20230203021532 31 248 0.0 6.0 0.00 0.00 0.00 62 1009.0
20230203020035 31 301 1.0 5.0 0.00 0.00 0.00 61 1009.3
20230203014524 31 257 1.0 6.0 0.00 0.00 0.00 61 1009.7
20230203013024 32 196 2.0 5.0 0.00 0.00 0.00 61 1009.8
20230203011521 32 191 2.0 8.0 0.00 0.00 0.00 60 1009.7
20230203010022 32 208 1.0 8.0 0.00 0.00 0.00 59 1009.9
20230203004518 32 239 1.0 5.0 0.00 0.00 0.00 58 1010.1
20230203003016 32 267 0.0 6.0 0.00 0.00 0.00 55 1010.6
20230203001515 32 221 1.0 6.0 0.00 0.00 0.00 53 1011.2
20230203000012 33 216 2.0 7.0 0.00 0.00 0.00 51 1011.2
20230202234510 33 236 0.0 8.0 0.00 0.00 0.00 49 1011.5
20230202233008 33 286 1.0 9.0 0.00 0.00 0.00 48 1012.0
20230202231506 34 265 1.0 7.0 0.00 0.00 0.00 46 1012.1
20230202230003 34 142 3.0 10.0 0.00 0.00 0.00 44 1012.5
20230202224501 34 275 2.0 8.0 0.00 0.00 0.00 46 1012.9
20230202223102 35 250 2.0 8.0 0.00 0.00 0.00 46 1013.1
20230202221610 35 280 1.0 6.0 0.00 0.00 0.00 45 1013.2
20230202220059 36 239 2.0 9.0 0.00 0.00 0.00 45 1012.7
20230202214556 36 134 2.0 6.0 0.00 0.00 0.00 42 1012.8
20230202213055 37 167 2.0 10.0 0.00 0.00 0.00 40 1013.2
20230202211552 37 242 3.0 10.0 0.00 0.00 0.00 38 1013.2
20230202210051 38 236 2.0 7.0 0.00 0.00 0.00 36 1013.5
20230202204549 38 263 5.0 12.0 0.00 0.00 0.00 35 1014.0
20230202203050 38 326 3.0 9.0 0.00 0.00 0.00 34 1014.3
20230202201547 39 252 3.0 7.0 0.00 0.00 0.00 35 1014.6
20230202200042 39 249 3.0 7.0 0.00 0.00 0.00 34 1014.7
20230202194549 38 307 3.0 8.0 0.00 0.00 0.00 35 1015.0
20230202193038 38 262 2.0 8.0 0.00 0.00 0.00 35 1015.1
20230202191535 38 326 4.0 8.0 0.00 0.00 0.00 34 1015.4
20230202190029 37 267 5.0 12.0 0.00 0.00 0.00 34 1016.0
20230202184526 37 253 5.0 10.0 0.00 0.00 0.00 35 1016.4
20230202183024 37 291 2.0 12.0 0.00 0.00 0.00 37 1016.6
20230202181522 36 295 3.0 9.0 0.00 0.00 0.00 38 1017.4
20230202180024 36 271 3.0 7.0 0.00 0.00 0.00 39 1017.6
20230202174515 35 256 2.0 9.0 0.00 0.00 0.00 39 1018.3
20230202173011 35 284 2.0 6.0 0.00 0.00 0.00 41 1018.9
20230202171506 34 288 2.0 8.0 0.00 0.00 0.00 42 1019.6
20230202170004 33 250 1.0 8.0 0.00 0.00 0.00 44 1019.9
20230202164501 33 264 3.0 10.0 0.00 0.00 0.00 44 1020.4
20230202163059 34 204 4.0 8.0 0.00 0.00 0.00 43 1020.7
20230202161556 33 281 4.0 9.0 0.00 0.00 0.00 43 1021.0
20230202160055 33 208 5.0 10.0 0.00 0.00 0.00 43 1021.2
20230202154551 34 282 1.0 8.0 0.00 0.00 0.00 46 1021.7
20230202153046 32 200 2.0 9.0 0.00 0.00 0.00 48 1022.1
20230202151543 31 256 2.0 7.0 0.00 0.00 0.00 50 1022.1
20230202150040 30 288 2.0 10.0 0.00 0.00 0.00 50 1022.2
20230202144540 30 231 3.0 11.0 0.00 0.00 0.00 52 1022.4
20230202143057 30 260 2.0 7.0 0.00 0.00 0.00 51 1022.5
20230202141541 30 283 1.0 5.0 0.00 0.00 0.00 54 1022.5
20230202140033 28 323 3.0 6.0 0.00 0.00 0.00 56 1022.7
20230202134529 28 259 3.0 7.0 0.00 0.00 0.00 55 1022.9
20230202133024 27 278 1.0 5.0 0.00 0.00 0.00 58 1023.2
20230202131520 25 269 3.0 8.0 0.00 0.00 0.00 61 1023.3
20230202130016 24 231 0.0 3.0 0.00 0.00 0.00 63 1023.3
20230202124514 23 308 1.0 3.0 0.00 0.00 0.00 65 1023.5
20230202123014 22 201 1.0 3.0 0.00 0.00 0.00 66 1023.7
20230202121507 0 0.0 0.0 0.00 0.00 0.00 1023.8
20230202120003 0 0.0 0.0 0.00 0.00 0.00 1023.9
20230202114605 0 0.0 0.0 0.00 0.00 0.00 1023.9
20230202113109 0 0.0 0.0 0.00 0.00 0.00 1024.0
20230202111551 0 0.0 0.0 0.00 0.00 0.00 1024.1
20230202110050 0 0.0 0.0 0.00 0.00 0.00 1024.0
20230202104541 0 0.0 0.0 0.00 0.00 0.00 1024.0
20230202103040 0 0.0 0.0 0.00 0.00 0.00 1023.9
20230202101532 0 0.0 0.0 0.00 0.00 0.00 1024.1
20230202100029 0 0.0 0.0 0.00 0.00 0.00 1024.0
20230202094524 0 0.0 0.0 0.00 0.00 0.00 1024.0
20230202093020 0 0.0 0.0 0.00 0.00 0.00 1024.0
20230202091516 0 0.0 0.0 0.00 0.00 0.00 1023.9
20230202090011 0 0.0 0.0 0.00 0.00 0.00 1024.1
20230202084507 0 0.0 0.0 0.00 0.00 0.00 1023.9
20230202083002 0 0.0 0.0 0.00 0.00 0.00 1023.8
20230202081611 0 0.0 0.0 0.00 0.00 0.00 1024.2
20230202080054 24 242 0.0 3.0 0.00 0.00 0.00 56 1024.3
20230202074552 24 267 1.0 3.0 0.00 0.00 0.00 56 1024.5
20230202073054 24 248 1.0 4.0 0.00 0.00 0.00 56 1024.3